Regional Weather Roundup
Issued by NWS Charleston, SC

Current Version | Previous Version | Text Only | Print | Product List | Glossary Off
Versions: 1 2 3 4 5 6 7 8 9 10 11 12 13 14 15 16 17 18 19 20 21 22 23 24 25 26 27 28 29 30 31 32 33 34 35 36 37 38 39 40 41 42 43 44 45 46 47 48 49 50

000
ASUS42 KCHS 200112
RWRCHS

REGIONAL WEATHER ROUNDUP
NATIONAL WEATHER SERVICE CHARLESTON SC
800 PM EST SUN NOV 19 2017

NOTE: "FAIR" INDICATES FEW OR NO CLOUDS BELOW 12,000 FEET WITH NO
SIGNIFICANT WEATHER AND/OR OBSTRUCTIONS TO VISIBILITY.

NOT ALL STATIONS ARE QUALITY CONTROLLED. USE DATA WITH CAUTION...
ESPECIALLY DEWPOINT OBSERVATIONS.

SCZ027-030-031-034>040-042>050-200200-
...SOUTHEAST SOUTH CAROLINA...

CITY           SKY/WX    TMP DP  RH WIND       PRES   REMARKS
N CHARLESTON   CLEAR     52  39  61 NW7       30.00R
WATERFRONT PRK NOT AVBL
JOHNS ISLAND   FAIR      50  45  81 CALM      30.00R
PINOPOLIS        N/A     57  46  67 NW9       29.90R
MONCKS CORNER  FAIR      48  37  66 CALM      30.00R
SUMMERVILLE    FAIR      52  37  58 NW5       30.01R
BEAUFORT MCAS  PTCLDY    54  39  57 NW10      30.02R
BEAUFORT ARPT  FAIR      54  41  62 NW7       30.01R
HILTON HEAD IS CLEAR    N/A N/A N/A W7        30.03R
WALTERBORO     CLEAR     50  37  62 NW7       30.02R
ALLENDALE      FAIR      48  34  57 CALM      30.02R

...SOUTHERN MIDLANDS AND PEE DEE...

CITY           SKY/WX    TMP DP  RH WIND       PRES   REMARKS
GEORGETOWN     FAIR      46  36  66 CALM      30.00R
KINGSTREE      FAIR      43  34  70 CALM      30.00R
ORANGEBURG     CLEAR     51  34  52 NW5       30.01R
BARNWELL         N/A     46  36  66 CALM      30.03R
AIKEN          FAIR      45  32  61 W6        30.05R
MANNING        FAIR      46  36  66 MISG      30.00R
COLUMBIA       CLEAR     53  33  46 NW5       30.02R
SUMTER         CLEAR     48  28  44 NW7       29.98R
FLORENCE       CLEAR     51  29  42 NW8       30.00R
MYRTLE BEACH   CLEAR     51  36  56 NW6       30.00R
N MYRTLE BEACH CLEAR     48  37  65 N3        29.98R

$$

GAZ063-065-086>088-099>101-113>116-118-119-134>141-150-200200-
...SOUTHEAST GEORGIA...

CITY           SKY/WX    TMP DP  RH WIND       PRES   REMARKS
SAVANNAH ARPT  CLEAR     52  35  52 NW9       30.04R
HUNTER AAF     CLEAR     54  35  49 W5        30.00R
FORT STEWART   CLEAR     52  33  49 NW6       30.02R
STATESBORO     CLEAR     49  32  52 NW6       30.05R
SYLVANIA       CLEAR     49  37  63 NW3       30.05R
CLAXTON        FAIR      52  36  54 W6        30.05R

...CSRA...CENTRAL AND FAR SOUTHEAST GEORGIA...

CITY           SKY/WX    TMP DP  RH WIND       PRES   REMARKS
THOMSON        CLEAR     44  35  71 N6        30.11R
AUGUSTA-BUSH   CLEAR     49  34  56 NW8       30.04R
AUGUSTA-DANIEL CLEAR     52  30  43 NW7       30.04R
SWAINSBORO     FAIR      45  36  70 NW5       30.06R
VIDALIA        CLEAR     52  36  54 NW5       30.06R
EASTMAN        FAIR      47  30  51 CALM      30.10R
HAZLEHURST     FAIR      52  24  33 NW3       30.05R
ALMA           CLEAR     50  36  58 NW5       30.04R
WAYCROSS       CLEAR     50  33  51 N6        30.05R
JESUP          FAIR      54  36  50 CALM      30.05R
BAXLEY         FAIR      46  36  66 CALM      30.04S
BRUNSWICK      CLEAR     45  39  81 CALM      30.04R
SAINT SIMONS   CLEAR     56  40  55 NW5       30.02R

$$

SCZ027-028-034-036>038-045-046-048>050-GAZ119-141-200200-
...LAKE AND SUPPLEMENTAL COASTAL OBSERVATIONS...

STATION/POSITION TIME  TEMP    WIND        PRES    WAVE   SWELL
                       AIR SEA DIR/SP/G            HT/PER HT/PER/DIR
                 (UTC) (F)     (DEG/KT/KT) (MB)    (FT/S) (FT/S/D)
WINYAH BAY       NOT AVBL
LAKE MURRAY      0020   52     350/  3/  7 1015.2
ACE BASIN NERRS  2345   55     260/  1     1015.0
FORT PULASKI     0042   56 62  320/ 11/ 13 1016.8R
SAPELO ISLAND    0000   56     320/  5     1016.0

$$

ANZ835-935-AMZ111-154-330-350-352-354-370-450-454-472-200200-
...C-MAN AND BUOY OBSERVATIONS...

STATION/POSITION TIME  TEMP    WIND        PRES    WAVE   SWELL
                       AIR SEA DIR/SP/G            HT/PER HT/PER/DIR
                 (UTC) (F)     (DEG/KT/KT) (MB)    (FT/S) (FT/S/D)
BUOY 41004       0050   65 72  320/ 19/ 25 1014.3R
BUOY 41008       0050   62 68  320/ 21/ 25 1015.5R   3/ 4
FOLLY BEACH CMAN 0000   56     290/  3/  4 1015.3R
CAPERS NEARSHORE 0008   58 62  330/ 12/ 14 1014.3R
FRIPP NEARSHORE  0008   58 62  290/ 14/ 19 1014.7R


STATION/POSITION TIME  TEMP    WIND        PRES    WAVE   SWELL
                       AIR SEA DIR/SP/G            HT/PER HT/PER/DIR
                 (UTC) (F)     (DEG/KT/KT) (MB)    (FT/S) (FT/S/D)
5E ST. MARYS GA  0100      67                N/A     2/ 4
FRYING PAN BUOY  0050   62 71  340/ 19/ 21 1013.7R   5/ 5   2/200/13
BUOY 41025       0050   59 66  320/ 19/ 25 1012.5R
CAPE LOOKOUT NC  0000          320/ 13/ 17 1013.0R
BUOY 41002       0050   72 77  320/ 21/ 25 1010.3R  10/ 8   5/340/21
BUOY 41010       NOT AVBL
ST AUGUSTINE FL  0000   62 69  330/  8/  9 1015.5R


$$



USA.gov is the U.S. government's official web portal to all federal, state and local government web resources and services.